Stündliche Wetter La Aldea

Heute, 14 Mai, Freitag

Zeit Temperatur Niederschläge Wind Luftdruck Luftfeuchtigkeit
00:00 +18°C° 0 mm 3 m/S 620 mmHg 71%
01:00 +17°C° 0 mm 2 m/S 620 mmHg 73%
02:00 +17°C° 0 mm 2 m/S 619 mmHg 74%
03:00 +16°C° 0 mm 2 m/S 620 mmHg 75%
04:00 +16°C° 0 mm 2 m/S 620 mmHg 76%
05:00 +16°C° 0 mm 2 m/S 620 mmHg 78%
06:00 +17°C° 0 mm 2 m/S 620 mmHg 71%
07:00 +19°C° 0 mm 2 m/S 621 mmHg 63%
08:00 +20°C° 0 mm 2 m/S 622 mmHg 56%
09:00 +23°C° 0 mm 2 m/S 622 mmHg 51%
10:00 +25°C° 0 mm 2 m/S 622 mmHg 45%
11:00 +27°C° 0 mm 2 m/S 622 mmHg 40%
12:00 +28°C° 0 mm 2 m/S 621 mmHg 37%
13:00 +29°C° 0 mm 2 m/S 621 mmHg 34%
14:00 +30°C° 0 mm 2 m/S 621 mmHg 31%
15:00 +29°C° 0 mm 3 m/S 620 mmHg 32%
16:00 +29°C° 0 mm 4 m/S 620 mmHg 33%
17:00 +28°C° 0 mm 5 m/S 619 mmHg 34%
18:00 +27°C° 0.1 mm 5 m/S 619 mmHg 42%
19:00 +25°C° 0.1 mm 4 m/S 620 mmHg 49%
20:00 +22°C° 0.1 mm 4 m/S 620 mmHg 57%
21:00 +21°C° 0.4 mm 3 m/S 620 mmHg 60%
22:00 +20°C° 0.4 mm 3 m/S 620 mmHg 64%
23:00 +19°C° 0.4 mm 2 m/S 620 mmHg 68%

Morgen, 15 Mai, Samstag

Zeit Temperatur Niederschläge Wind Luftdruck Luftfeuchtigkeit
00:00 +19°C° 0 mm 2 m/S 620 mmHg 69%
01:00 +20°C° 0 mm 1 m/S 620 mmHg 70%
02:00 +20°C° 0 mm 1 m/S 619 mmHg 72%
03:00 +19°C° 0 mm 1 m/S 619 mmHg 73%
04:00 +19°C° 0 mm 1 m/S 619 mmHg 74%
05:00 +19°C° 0 mm 1 m/S 619 mmHg 76%
06:00 +20°C° 0 mm 1 m/S 620 mmHg 69%
07:00 +21°C° 0 mm 1 m/S 620 mmHg 62%
08:00 +23°C° 0 mm 2 m/S 621 mmHg 55%
09:00 +25°C° 0 mm 2 m/S 621 mmHg 49%
10:00 +26°C° 0 mm 2 m/S 621 mmHg 43%
11:00 +28°C° 0 mm 2 m/S 621 mmHg 37%
12:00 +29°C° 0 mm 2 m/S 621 mmHg 33%
13:00 +30°C° 0 mm 2 m/S 620 mmHg 30%
14:00 +31°C° 0 mm 3 m/S 620 mmHg 27%
15:00 +31°C° 0 mm 3 m/S 619 mmHg 27%
16:00 +32°C° 0 mm 4 m/S 619 mmHg 27%
17:00 +30°C° 0 mm 4 m/S 618 mmHg 27%
18:00 +28°C° 0.2 mm 3 m/S 618 mmHg 33%
19:00 +26°C° 0.2 mm 3 m/S 618 mmHg 39%
20:00 +24°C° 0.2 mm 2 m/S 618 mmHg 45%
21:00 +24°C° 0.4 mm 2 m/S 619 mmHg 51%
22:00 +23°C° 0.4 mm 2 m/S 619 mmHg 56%
23:00 +21°C° 0.4 mm 2 m/S 620 mmHg 62%

übermorgen, 16 Mai, Sonntag

Zeit Temperatur Niederschläge Wind Luftdruck Luftfeuchtigkeit
00:00 +21°C° 0.2 mm 2 m/S 619 mmHg 62%
01:00 +21°C° 0.2 mm 2 m/S 619 mmHg 62%
02:00 +22°C° 0.2 mm 1 m/S 619 mmHg 62%
03:00 +21°C° 0 mm 1 m/S 619 mmHg 64%
04:00 +21°C° 0 mm 1 m/S 619 mmHg 67%
05:00 +20°C° 0 mm 1 m/S 619 mmHg 70%
06:00 +22°C° 0 mm 1 m/S 619 mmHg 61%
07:00 +23°C° 0 mm 1 m/S 620 mmHg 53%
08:00 +25°C° 0 mm 2 m/S 621 mmHg 44%
09:00 +27°C° 0 mm 2 m/S 621 mmHg 39%
10:00 +28°C° 0 mm 2 m/S 621 mmHg 33%
11:00 +30°C° 0 mm 3 m/S 621 mmHg 27%
12:00 +31°C° 0 mm 3 m/S 621 mmHg 25%
13:00 +33°C° 0 mm 3 m/S 620 mmHg 22%
14:00 +34°C° 0 mm 3 m/S 620 mmHg 19%
15:00 +34°C° 0 mm 3 m/S 620 mmHg 18%
16:00 +33°C° 0 mm 3 m/S 619 mmHg 17%
17:00 +33°C° 0 mm 3 m/S 619 mmHg 16%
18:00 +31°C° 0 mm 3 m/S 619 mmHg 18%
19:00 +29°C° 0 mm 2 m/S 619 mmHg 20%
20:00 +27°C° 0 mm 2 m/S 618 mmHg 22%
21:00 +27°C° 0 mm 2 m/S 619 mmHg 27%
22:00 +26°C° 0 mm 1 m/S 619 mmHg 32%
23:00 +25°C° 0 mm 1 m/S 619 mmHg 37%

17 Mai, Montag

Zeit Temperatur Niederschläge Wind Luftdruck Luftfeuchtigkeit
00:00 +25°C° 0 mm 1 m/S 619 mmHg 42%
01:00 +24°C° 0 mm 1 m/S 619 mmHg 47%
02:00 +23°C° 0 mm 1 m/S 618 mmHg 52%
03:00 +22°C° 0.1 mm 1 m/S 618 mmHg 58%
04:00 +21°C° 0.1 mm 1 m/S 618 mmHg 64%
05:00 +19°C° 0.1 mm 2 m/S 618 mmHg 71%
06:00 +21°C° 0 mm 2 m/S 619 mmHg 64%
07:00 +24°C° 0 mm 2 m/S 620 mmHg 56%
08:00 +25°C° 0 mm 2 m/S 620 mmHg 49%
09:00 +27°C° 0 mm 2 m/S 621 mmHg 41%
10:00 +29°C° 0 mm 2 m/S 621 mmHg 33%
11:00 +31°C° 0 mm 3 m/S 621 mmHg 25%
12:00 +32°C° 0 mm 2 m/S 620 mmHg 23%
13:00 +34°C° 0 mm 2 m/S 620 mmHg 20%
14:00 +34°C° 0 mm 2 m/S 620 mmHg 18%
15:00 +34°C° 0 mm 2 m/S 619 mmHg 18%
16:00 +34°C° 0 mm 2 m/S 619 mmHg 18%
17:00 +34°C° 0 mm 2 m/S 618 mmHg 17%
18:00 +32°C° 0 mm 2 m/S 618 mmHg 21%
19:00 +30°C° 0 mm 2 m/S 618 mmHg 24%
20:00 +29°C° 0 mm 3 m/S 618 mmHg 28%
21:00 +28°C° 0.6 mm 2 m/S 619 mmHg 35%
22:00 +26°C° 0.6 mm 2 m/S 619 mmHg 42%
23:00 +25°C° 0.6 mm 2 m/S 619 mmHg 50%

18 Mai, Dienstag

Zeit Temperatur Niederschläge Wind Luftdruck Luftfeuchtigkeit
00:00 +25°C° 0.2 mm 2 m/S 619 mmHg 51%
01:00 +24°C° 0.2 mm 2 m/S 618 mmHg 53%
02:00 +24°C° 0.2 mm 2 m/S 618 mmHg 55%
03:00 +23°C° 0 mm 1 m/S 618 mmHg 58%
04:00 +22°C° 0 mm 1 m/S 618 mmHg 61%
05:00 +20°C° 0 mm 0 m/S 618 mmHg 64%
06:00 +23°C° 0 mm 1 m/S 619 mmHg 58%
07:00 +24°C° 0 mm 1 m/S 620 mmHg 53%
08:00 +26°C° 0 mm 2 m/S 620 mmHg 48%
09:00 +28°C° 0 mm 2 m/S 620 mmHg 42%
10:00 +29°C° 0 mm 3 m/S 620 mmHg 36%
11:00 +32°C° 0 mm 4 m/S 620 mmHg 30%
12:00 +33°C° 0 mm 4 m/S 620 mmHg 26%
13:00 +34°C° 0 mm 5 m/S 619 mmHg 22%
14:00 +35°C° 0 mm 6 m/S 619 mmHg 18%
15:00 +34°C° 0 mm 6 m/S 619 mmHg 17%
16:00 +34°C° 0 mm 6 m/S 618 mmHg 17%
17:00 +34°C° 0 mm 6 m/S 618 mmHg 17%
18:00 +32°C° 0 mm 5 m/S 618 mmHg 19%
19:00 +29°C° 0 mm 4 m/S 618 mmHg 22%
20:00 +28°C° 0 mm 3 m/S 618 mmHg 24%
21:00 +26°C° 0 mm 3 m/S 618 mmHg 33%
22:00 +25°C° 0 mm 3 m/S 618 mmHg 42%
23:00 +24°C° 0 mm 3 m/S 618 mmHg 50%

19 Mai, Mittwoch

Zeit Temperatur Niederschläge Wind Luftdruck Luftfeuchtigkeit
00:00 +23°C° 0 mm 2 m/S 618 mmHg 53%
01:00 +23°C° 0 mm 2 m/S 618 mmHg 55%
02:00 +22°C° 0 mm 1 m/S 617 mmHg 58%
03:00 +22°C° 0 mm 1 m/S 617 mmHg 60%
04:00 +21°C° 0 mm 1 m/S 617 mmHg 61%
05:00 +19°C° 0 mm 0 m/S 617 mmHg 63%
06:00 +22°C° 0 mm 1 m/S 618 mmHg 58%
07:00 +24°C° 0 mm 1 m/S 619 mmHg 52%
08:00 +25°C° 0 mm 2 m/S 619 mmHg 47%
09:00 +27°C° 0 mm 2 m/S 620 mmHg 39%
10:00 +29°C° 0 mm 3 m/S 620 mmHg 31%
11:00 +31°C° 0 mm 3 m/S 620 mmHg 23%
12:00 +33°C° 0 mm 3 m/S 619 mmHg 20%
13:00 +34°C° 0 mm 3 m/S 619 mmHg 18%
14:00 +35°C° 0 mm 3 m/S 619 mmHg 15%
15:00 +34°C° 0 mm 3 m/S 618 mmHg 15%
16:00 +34°C° 0 mm 4 m/S 618 mmHg 14%
17:00 +34°C° 0 mm 4 m/S 617 mmHg 14%
18:00 +31°C° 0 mm 3 m/S 617 mmHg 16%
19:00 +29°C° 0 mm 3 m/S 617 mmHg 18%
20:00 +28°C° 0 mm 3 m/S 617 mmHg 19%
21:00 +27°C° 0 mm 2 m/S 617 mmHg 23%
22:00 +25°C° 0 mm 2 m/S 617 mmHg 26%
23:00 +24°C° 0 mm 1 m/S 617 mmHg 29%
Mehr zeigen

Wir brauchen deine Erlaubnis

Meteoprog und unser Service Anbieter werden persönliche Daten aufbewahren, so wie Cookies, Geräte Bezeichnung oder ähnliche Technologien von deinem Gerät und Prozess, so wie Persönliche Daten Inhalte und Werbungen, genauso wie social Media und den Verkehr zu analysieren.

  • Aufbewahrung und/oder Zugang zu deiner Geräte Informationen.

    Cookies, Geräte Bezeichnung oder andere Informationen, können aufbewahrt oder Zugang zu deinem Gerät erhalten, für den Grund, der oben angegeben wird.

  • Personalisierte Werbung und Inhalte, Messungen, Einblick in das Publikum und Produkt Entwicklung.

    Werbungen und Inhalte können personalisiert werden, basierend auf ein Profil. Mehr Daten können besser personalisierte Werbungen und Inhalte hinzufügen. Werbung und Inhalte können gezeigt und gemessen werden. Einblicke über das Publikum, welche die Werbung gesehen haben und den Inhalt, können abgeleitet werden. So wie Daten können genutzt werden, um es zu verbessern oder die Benutzer Erfahrung zu verbessern das System und die Software.

Wenn du “Ich stimme zu” klickst, erlaubst du uns, die Cookies zu benutzen die Geräte Bezeichnung, den Web oder ähnliche Technologien zu benutzen. Deine Settings, können in deinem Gerät bei deinem Browser geändert werden.

Für den bestimmten Zweck, berechtigten Interessen beruhen darauf, mehr als auf den Inhalt. Du kannst mehr darüber in unseren Privaten und Cookie Politik lesen.